SNOHOMISH--AT SNOHOMISH (SNAW1)

Observed    Forecast/Trend Issued: 2024-03-04 15:38 PST
Date/Time (PST)StageDischarge    Date/Time (PST)StageDischarge
2024-03-05 01:0015.3818000    2024-03-05 03:0016.4818000
2024-03-05 00:4515.1418000    2024-03-05 04:0016.2318000
2024-03-05 00:3014.8818000    2024-03-05 05:0015.7718000
2024-03-05 00:1514.6118000    2024-03-05 06:0015.2918000
2024-03-05 00:0014.3418000    2024-03-05 07:0015.0018000
2024-03-04 23:4514.0318000    2024-03-05 08:0014.8918000
2024-03-04 23:3013.7018000    2024-03-05 09:0014.9918000
2024-03-04 23:1513.3418000    2024-03-05 10:0015.1818000
2024-03-04 23:0012.9418000    2024-03-05 11:0015.3718000
2024-03-04 22:4512.5018000    2024-03-05 12:0015.3618000
2024-03-04 22:3012.0518000    2024-03-05 13:0014.9518000
2024-03-04 22:1511.5618000    2024-03-05 14:0014.1418000
2024-03-04 22:0011.1118000    2024-03-05 15:0013.1618000
2024-03-04 21:4510.7018000    2024-03-05 16:0011.7918000
2024-03-04 21:3010.3618000    2024-03-05 17:0010.6518000
2024-03-04 21:1510.1018000    2024-03-05 18:0010.2818000
2024-03-04 21:009.8918000    2024-03-05 19:009.5518000
2024-03-04 20:459.7318000    2024-03-05 20:008.8518000
2024-03-04 20:309.6218000    2024-03-05 21:008.5118000
2024-03-04 20:159.5818000    2024-03-05 22:008.6818000
2024-03-04 20:009.5518000    2024-03-05 23:009.7018000
2024-03-04 19:459.5718000    2024-03-06 00:0010.6118000
2024-03-04 19:309.6018000    2024-03-06 01:0013.6118000
2024-03-04 19:159.6318000    2024-03-06 02:0015.3918000
2024-03-04 19:009.6918000    2024-03-06 03:0016.7018000
2024-03-04 18:459.7518000    2024-03-06 04:0016.9218000
2024-03-04 18:309.8218000    2024-03-06 05:0016.4618000
2024-03-04 18:159.9118000    2024-03-06 06:0015.6618000
2024-03-04 18:0010.0118000    2024-03-06 07:0014.8918000
2024-03-04 17:4510.1118000    2024-03-06 08:0014.3518000
2024-03-04 17:3010.2318000    2024-03-06 09:0014.1718000
2024-03-04 17:1510.3518000    2024-03-06 10:0014.3518000
2024-03-04 17:0010.4918000    2024-03-06 11:0014.7918000
2024-03-04 16:4510.6518000    2024-03-06 12:0015.1918000
2024-03-04 16:3010.7918000    2024-03-06 13:0015.2518000
2024-03-04 16:1510.9718000    2024-03-06 14:0014.7818000
2024-03-04 16:0011.1518000    2024-03-06 15:0013.8518000
2024-03-04 15:4511.3418000    2024-03-06 16:0012.5118000
2024-03-04 15:3011.5418000    2024-03-06 17:0010.9418000
2024-03-04 15:1511.7818000    2024-03-06 18:009.9018000
2024-03-04 15:0012.0018000    2024-03-06 19:009.5718000
2024-03-04 14:4512.2418000    2024-03-06 20:008.6818000
2024-03-04 14:3012.4918000    2024-03-06 21:007.9118000
2024-03-04 14:1512.7318000    2024-03-06 22:007.6018000
2024-03-04 14:0012.9818000    2024-03-06 23:007.5918000
2024-03-04 13:4513.2118000    2024-03-07 00:008.6918000
2024-03-04 13:3013.4518000    2024-03-07 01:009.8618000
2024-03-04 13:1513.6718000    2024-03-07 02:0013.3718000
2024-03-04 13:0013.8918000    2024-03-07 03:0015.5518000
2024-03-04 12:4514.1018000    2024-03-07 04:0017.0718000
2024-03-04 12:3014.2918000    2024-03-07 05:0017.2718000
2024-03-04 12:1514.4618000    2024-03-07 06:0016.5318000
2024-03-04 12:0014.6318000    2024-03-07 07:0015.3018000
2024-03-04 11:4514.7518000    2024-03-07 08:0014.2618000
2024-03-04 11:3014.8718000    2024-03-07 09:0013.4518000
2024-03-04 11:1514.9618000    2024-03-07 10:0013.1218000
2024-03-04 11:0015.0318000    2024-03-07 11:0013.3318000
2024-03-04 10:4515.0818000    2024-03-07 12:0014.1018000
2024-03-04 10:3015.1018000    2024-03-07 13:0014.7818000
2024-03-04 10:1515.1218000    2024-03-07 14:0015.3818000
2024-03-04 10:0015.1318000    2024-03-07 15:0015.4518000
2024-03-04 09:4515.1118000    2024-03-07 16:0014.7418000
2024-03-04 09:3015.1118000    2024-03-07 17:0013.4518000
2024-03-04 09:1515.0718000    2024-03-07 18:0011.5418000
2024-03-04 09:0015.0418000    2024-03-07 19:009.7318000
2024-03-04 08:4514.9918000    2024-03-07 20:009.4518000
2024-03-04 08:3014.9018000    2024-03-07 21:008.4418000
2024-03-04 08:1514.8218000    2024-03-07 22:007.3618000
2024-03-04 08:0014.7518000    2024-03-07 23:007.1918000
2024-03-04 07:4514.6818000    2024-03-08 00:007.1918000
2024-03-04 07:3014.6218000    2024-03-08 01:008.5018000
2024-03-04 07:1514.5818000    2024-03-08 02:0011.1118000
2024-03-04 07:0014.5618000    2024-03-08 03:0015.1418000
2024-03-04 06:4514.5418000    2024-03-08 04:0017.3518000
2024-03-04 06:3014.5418000    2024-03-08 05:0017.6818000
2024-03-04 06:1514.5618000    2024-03-08 06:0016.9118000
2024-03-04 06:0014.6018000    2024-03-08 07:0015.5618000
2024-03-04 05:4514.6418000    2024-03-08 08:0014.2818000
2024-03-04 05:3014.7118000    2024-03-08 09:0013.1318000
2024-03-04 05:1514.7618000    2024-03-08 10:0012.0018000
2024-03-04 05:0014.8318000    2024-03-08 11:0011.5218000
2024-03-04 04:4514.9118000    2024-03-08 12:0011.7918000
2024-03-04 04:3014.9918000    2024-03-08 13:0013.2318000
2024-03-04 04:1515.0718000    2024-03-08 14:0014.6518000
2024-03-04 04:0015.1518000    2024-03-08 15:0015.7818000
2024-03-04 03:4515.2418000    2024-03-08 16:0015.8818000
2024-03-04 03:3015.3118000    2024-03-08 17:0014.7618000
2024-03-04 03:1515.3718000    2024-03-08 18:0012.9618000
2024-03-04 03:0015.4518000    2024-03-08 19:0010.5618000
2024-03-04 02:4515.5118000    2024-03-08 20:009.3418000
2024-03-04 02:3015.5718000    2024-03-08 21:008.6718000
2024-03-04 02:1515.6318000    2024-03-08 22:006.9918000
2024-03-04 02:0015.6718000    2024-03-08 23:006.9318000
2024-03-04 01:4515.6918000    2024-03-09 00:006.9118000
2024-03-04 01:3015.6918000    2024-03-09 01:007.5218000
2024-03-04 01:1515.6818000    2024-03-09 02:009.3318000
2024-03-04 01:0015.6518000    2024-03-09 03:0013.2618000
2024-03-04 00:4515.5818000    2024-03-09 04:0016.0118000
2024-03-04 00:3015.5018000    2024-03-09 05:0017.7518000
2024-03-04 00:1515.3918000    2024-03-09 06:0017.7718000
2024-03-04 00:0015.2618000    2024-03-09 07:0016.4218000
2024-03-03 23:4515.0818000    2024-03-09 08:0014.5318000
2024-03-03 23:3014.8918000    2024-03-09 09:0012.6318000
2024-03-03 23:1514.6818000    2024-03-09 10:0010.9318000
2024-03-03 23:0014.4318000    2024-03-09 11:009.8718000
2024-03-03 22:4514.1818000    2024-03-09 12:009.8418000
2024-03-03 22:3013.9118000    2024-03-09 13:0011.0418000
2024-03-03 22:1513.6018000    2024-03-09 14:0013.2718000
2024-03-03 22:0013.2618000    2024-03-09 15:0014.9718000
2024-03-03 21:4512.8918000    2024-03-09 16:0016.2518000
2024-03-03 21:3012.5018000    2024-03-09 17:0016.3018000
2024-03-03 21:1512.0918000    2024-03-09 17:0015.0218000
2024-03-03 21:0011.7118000    2024-03-09 18:0013.2218000
2024-03-03 20:4511.3518000    2024-03-09 19:0010.7718000
2024-03-03 20:3011.0418000    2024-03-09 20:009.3718000
2024-03-03 20:1510.7818000    2024-03-09 21:008.8418000
2024-03-03 20:0010.5718000    2024-03-09 22:007.5118000
2024-03-03 19:4510.4418000    2024-03-09 23:007.0718000
2024-03-03 19:3010.3418000    2024-03-10 00:007.1118000
2024-03-03 19:1510.3018000    2024-03-10 01:008.7218000
2024-03-03 19:0010.2718000    2024-03-10 03:0011.7618000
2024-03-03 18:4510.2718000    2024-03-10 04:0015.8518000
2024-03-03 18:3010.2918000    2024-03-10 05:0018.0719877
2024-03-03 18:1510.3418000    2024-03-10 06:0018.2022621
2024-03-03 18:0010.3918000    2024-03-10 07:0016.9918000
2024-03-03 17:4510.4518000    2024-03-10 08:0015.1118000
2024-03-03 17:3010.5318000    2024-03-10 09:0013.4418000
2024-03-03 17:1510.6218000    2024-03-10 10:0011.7418000
2024-03-03 17:0010.7318000    2024-03-10 11:0010.2018000
2024-03-03 16:4510.8418000    2024-03-10 12:009.9518000
2024-03-03 16:3010.9718000    2024-03-10 13:009.9818000
2024-03-03 16:1511.1118000    2024-03-10 14:0010.3718000
2024-03-03 16:0011.2618000    2024-03-10 15:0012.8618000
2024-03-03 15:4511.4218000    2024-03-10 16:0014.9818000
2024-03-03 15:3011.6018000    2024-03-10 17:0016.4918000
2024-03-03 15:1511.7918000    2024-03-10 18:0016.6218000
2024-03-03 15:0012.0018000    2024-03-10 19:0015.4618000
2024-03-03 14:4512.2318000    2024-03-10 20:0013.9618000
2024-03-03 14:3012.4618000    2024-03-10 21:0012.2718000
2024-03-03 14:1512.7118000    2024-03-10 22:0010.6718000
2024-03-03 14:0012.9518000    2024-03-10 23:0010.0818000
2024-03-03 13:4513.2018000    2024-03-11 00:009.0618000
2024-03-03 13:3013.4518000    2024-03-11 01:008.5118000
2024-03-03 13:1513.7018000    2024-03-11 02:008.8818000
2024-03-03 13:0013.9518000    2024-03-11 03:0010.9618000
2024-03-03 12:4514.2118000    2024-03-11 04:0015.3418000
2024-03-03 12:3014.4518000    2024-03-11 05:0017.8418000
2024-03-03 12:1514.6918000    2024-03-11 06:0018.1020681
2024-03-03 12:0014.9118000    2024-03-11 07:0017.1818000
2024-03-03 11:4515.1318000    2024-03-11 08:0015.6718000
2024-03-03 11:3015.3218000    2024-03-11 09:0014.2418000
2024-03-03 11:1515.5018000    2024-03-11 10:0013.1218000
2024-03-03 11:0015.6518000    2024-03-11 11:0011.7118000
2024-03-03 10:4515.7818000    2024-03-11 12:0011.3018000
2024-03-03 10:3015.8818000    2024-03-11 13:0011.0318000
2024-03-03 10:1515.9618000    2024-03-11 14:0010.9118000
2024-03-03 10:0016.0118000    2024-03-11 15:0011.4618000
2024-03-03 09:4516.0318000    2024-03-11 16:0013.0118000
2024-03-03 09:3016.0318000    2024-03-11 17:0015.0318000
2024-03-03 09:1516.0118000    2024-03-11 18:0016.5318000
2024-03-03 09:0015.9818000    2024-03-11 19:0016.7618000
2024-03-03 08:4515.9118000    2024-03-11 20:0015.9318000
2024-03-03 08:3015.8318000    2024-03-11 21:0014.7218000
2024-03-03 08:1515.7418000    2024-03-11 22:0013.7218000
2024-03-03 08:0015.6318000    2024-03-11 23:0012.6518000
2024-03-03 07:4515.5318000    2024-03-12 00:0012.2218000
2024-03-03 07:3015.4018000    2024-03-12 01:0011.7018000
2024-03-03 07:1515.2718000    2024-03-12 02:0011.2018000
2024-03-03 07:0015.1318000    2024-03-12 03:0012.0218000
2024-03-03 06:4514.9918000    2024-03-12 04:0013.6918000
2024-03-03 06:3014.8518000    2024-03-12 05:0016.2918000
2024-03-03 06:1514.7218000    2024-03-12 06:0018.4824253
2024-03-03 06:0014.6018000    2024-03-12 07:0017.9518000
2024-03-03 05:4514.5118000    2024-03-12 08:0016.9618000
2024-03-03 05:3014.4418000    2024-03-12 09:0015.4218000
2024-03-03 05:1514.3818000    2024-03-12 10:0014.2318000
2024-03-03 05:0014.3818000    2024-03-12 11:0013.3118000
2024-03-03 04:4514.3618000    2024-03-12 12:0012.7618000
2024-03-03 04:3014.3818000    2024-03-12 13:0011.9918000
2024-03-03 04:1514.4318000    2024-03-12 14:0011.2718000
2024-03-03 04:0014.5018000    2024-03-12 15:0011.7818000
2024-03-03 03:4514.5818000    2024-03-12 16:0012.8718000
2024-03-03 03:3014.6618000    2024-03-12 17:0014.0518000
2024-03-03 03:1514.7418000    2024-03-12 18:0015.4918000
2024-03-03 03:0014.8118000    2024-03-12 19:0016.5918000
2024-03-03 02:4514.9018000    2024-03-12 20:0016.6918000
2024-03-03 02:3014.9918000    2024-03-12 21:0015.9218000
2024-03-03 02:1515.0718000    2024-03-12 22:0014.7918000
2024-03-03 02:0015.1418000    2024-03-12 23:0013.9618000
2024-03-03 01:4515.2118000    2024-03-13 00:0013.2818000
2024-03-03 01:3015.2818000    2024-03-13 01:0012.9418000
2024-03-03 01:1515.3318000    2024-03-13 02:0012.8418000
2024-03-03 01:0015.3918000    2024-03-13 03:0013.0618000
2024-03-03 00:4515.4518000    2024-03-13 04:0013.8418000
2024-03-03 00:3015.4918000    2024-03-13 05:0015.2118000
2024-03-03 00:1515.5118000    2024-03-13 06:0016.8818000
2024-03-03 00:0015.5118000    2024-03-13 07:0017.7518000
2024-03-02 23:4515.5018000    2024-03-13 08:0017.6718000
2024-03-02 23:3015.4818000    2024-03-13 09:0016.7218000
2024-03-02 23:1515.4118000    2024-03-13 10:0015.2518000
2024-03-02 23:0015.3418000    2024-03-13 11:0014.1718000
2024-03-02 22:4515.2218000    2024-03-13 12:0013.3318000
2024-03-02 22:3015.1118000    2024-03-13 13:0012.7918000
2024-03-02 22:1514.9518000    2024-03-13 14:0011.7018000
2024-03-02 22:0014.7518000    2024-03-13 15:0011.0518000
2024-03-02 21:4514.5518000    2024-03-13 16:0011.1818000
2024-03-02 21:3014.3318000    2024-03-13 17:0012.6118000
2024-03-02 21:1514.0618000    2024-03-13 18:0013.7518000
2024-03-02 21:0013.7718000    2024-03-13 19:0015.2418000
2024-03-02 20:4513.4618000    2024-03-13 20:0016.3718000
2024-03-02 20:3013.1618000    2024-03-13 21:0016.5518000
2024-03-02 20:1512.8618000    2024-03-13 22:0015.9618000
2024-03-02 20:0012.5318000    2024-03-13 23:0015.0218000
2024-03-02 19:4512.2518000    2024-03-14 00:0014.2818000
2024-03-02 19:3012.0318000    2024-03-14 01:0013.7118000
2024-03-02 19:1511.8518000    2024-03-14 02:0013.3418000
2024-03-02 19:0011.7118000    2024-03-14 03:0013.3218000
2024-03-02 18:4511.6318000    2024-03-14 04:0013.8318000
2024-03-02 18:3011.5918000   
2024-03-02 18:1511.5818000   
2024-03-02 18:0011.5918000   
2024-03-02 17:4511.6218000   
2024-03-02 17:3011.6618000   
2024-03-02 17:1511.7318000   
2024-03-02 17:0011.7918000   
2024-03-02 16:4511.8818000   
2024-03-02 16:3011.9718000   
2024-03-02 16:1512.1018000   
2024-03-02 16:0012.2218000   
2024-03-02 15:4512.3518000   
2024-03-02 15:3012.5118000   
2024-03-02 15:1512.6618000   
2024-03-02 15:0012.8418000   
2024-03-02 14:4513.0218000   
2024-03-02 14:3013.2218000   
2024-03-02 14:1513.4218000   
2024-03-02 14:0013.6318000   
2024-03-02 13:4513.8618000   
2024-03-02 13:3014.0718000   
2024-03-02 13:1514.3018000   
2024-03-02 13:0014.5318000   
2024-03-02 12:4514.7618000   
2024-03-02 12:3015.0118000   
2024-03-02 12:1515.2518000   
2024-03-02 12:0015.4918000   
2024-03-02 11:4515.7218000   
2024-03-02 11:3015.9418000   
2024-03-02 11:1516.1618000   
2024-03-02 11:0016.3218000   
2024-03-02 10:4516.4918000   
2024-03-02 10:3016.6618000   
2024-03-02 10:1516.8018000   
2024-03-02 10:0016.9018000   
2024-03-02 09:4516.9618000   
2024-03-02 09:3017.0118000   
2024-03-02 09:1517.0118000   
2024-03-02 09:0016.9918000   
2024-03-02 08:4516.9118000   
2024-03-02 08:3016.8318000   
2024-03-02 08:1516.7118000   
2024-03-02 08:0016.5518000   
2024-03-02 07:4516.3818000   
2024-03-02 07:3016.1918000   
2024-03-02 07:1516.0018000   
2024-03-02 07:0015.8018000   
2024-03-02 06:4515.6018000   
2024-03-02 06:3015.4118000   
2024-03-02 06:1515.2418000   
2024-03-02 06:0015.0518000   
2024-03-02 05:4514.9018000   
2024-03-02 05:3014.7618000   
2024-03-02 05:1514.6318000   
2024-03-02 05:0014.5518000   
2024-03-02 04:4514.4818000   
2024-03-02 04:3014.4518000   
2024-03-02 04:1514.4318000   
2024-03-02 04:0014.4518000   
2024-03-02 03:4514.5018000   
2024-03-02 03:3014.5518000   
2024-03-02 03:1514.6318000   
2024-03-02 03:0014.7318000   
2024-03-02 02:4514.8318000   
2024-03-02 02:3014.9418000   
2024-03-02 02:1515.0518000   
2024-03-02 02:0015.1618000   
2024-03-02 01:4515.2818000   
2024-03-02 01:3015.3918000   
2024-03-02 01:1515.5118000   
2024-03-02 01:0015.6218000   
2024-03-02 00:4515.7118000   
2024-03-02 00:3015.8118000   
2024-03-02 00:1515.9018000   
2024-03-02 00:0015.9818000   
2024-03-01 23:4516.0718000   
2024-03-01 23:3016.1418000   
2024-03-01 23:1516.2018000   
2024-03-01 23:0016.2418000   
2024-03-01 22:4516.2818000   
2024-03-01 22:3016.2618000   
2024-03-01 22:1516.2318000   
2024-03-01 22:0016.1818000   
2024-03-01 21:4516.0718000   
2024-03-01 21:3015.9518000   
2024-03-01 21:1515.8018000   
2024-03-01 21:0015.6118000   
2024-03-01 20:4515.4018000   
2024-03-01 20:3015.1818000   
2024-03-01 20:1514.9418000   
2024-03-01 20:0014.6818000   
2024-03-01 19:4514.4118000   
2024-03-01 19:3014.1718000   
2024-03-01 19:1513.9718000   
2024-03-01 19:0013.7818000   
2024-03-01 18:4513.6318000   
2024-03-01 18:3013.4918000   
2024-03-01 18:1513.4118000   
2024-03-01 18:0013.3518000   
2024-03-01 17:4513.3318000   
2024-03-01 17:3013.3318000   
2024-03-01 17:1513.3518000   
2024-03-01 17:0013.3718000   
2024-03-01 16:4513.4318000   
2024-03-01 16:3013.4918000   
2024-03-01 16:1513.5718000   
2024-03-01 16:0013.6518000   
2024-03-01 15:4513.7518000   
2024-03-01 15:3013.8518000   
2024-03-01 15:1513.9718000   
2024-03-01 15:0014.0918000   
2024-03-01 14:4514.2218000   
2024-03-01 14:3014.3518000   
2024-03-01 14:1514.5118000   
2024-03-01 14:0014.6618000   
2024-03-01 13:4514.8318000   
2024-03-01 13:3015.0018000   
2024-03-01 13:1515.2018000   
2024-03-01 13:0015.3818000   
2024-03-01 12:4515.5718000   
2024-03-01 12:3015.7618000   
2024-03-01 12:1515.9618000   
2024-03-01 12:0016.1618000   
2024-03-01 11:4516.3518000   
2024-03-01 11:3016.5718000   
2024-03-01 11:1516.7618000   
2024-03-01 11:0016.9518000   
2024-03-01 10:4517.1218000   
2024-03-01 10:3017.3118000   
2024-03-01 10:1517.4918000   
2024-03-01 10:0017.6318000   
2024-03-01 09:4517.7818000   
2024-03-01 09:3017.8918000   
2024-03-01 09:1517.9718000   
2024-03-01 09:0018.0218536   
2024-03-01 08:4518.0318804   
2024-03-01 08:3018.0018000   
2024-03-01 08:1517.9118000   
2024-03-01 08:0017.8218000   
2024-03-01 07:4517.6918000   
2024-03-01 07:3017.5118000   
2024-03-01 07:1517.3218000   
2024-03-01 07:0017.1218000   
2024-03-01 06:4516.9318000   
2024-03-01 06:3016.7318000   
2024-03-01 06:1516.5218000   
2024-03-01 06:0016.3318000   
2024-03-01 05:4516.1818000   
2024-03-01 05:3016.0418000   
2024-03-01 05:1515.9318000   
2024-03-01 05:0015.8218000   
2024-03-01 04:4515.7618000   
2024-03-01 04:3015.7218000   
2024-03-01 04:1515.6918000   
2024-03-01 04:0015.6818000   
2024-03-01 03:4515.6918000   
2024-03-01 03:3015.7118000   
2024-03-01 03:1515.7618000   
2024-03-01 03:0015.8118000   
2024-03-01 02:4515.9018000   
2024-03-01 02:3015.9918000   
2024-03-01 02:1516.0718000   
2024-03-01 02:0016.1518000   
2024-03-01 01:4516.2618000   
2024-03-01 01:3016.3718000   
2024-03-01 01:1516.4718000   
2024-03-01 01:0016.5818000   
2024-03-01 00:4516.6818000   
2024-03-01 00:3016.7718000   
2024-03-01 00:1516.8818000   
2024-03-01 00:0016.9818000   
2024-02-29 23:4517.0618000   
2024-02-29 23:3017.1418000   
2024-02-29 23:1517.2218000   
2024-02-29 23:0017.2818000   
2024-02-29 22:4517.3618000   
2024-02-29 22:3017.4218000   
2024-02-29 22:1517.4718000   
2024-02-29 22:0017.5018000   
2024-02-29 21:4517.5418000   
2024-02-29 21:3017.5318000   
2024-02-29 21:1517.4918000   
2024-02-29 21:0017.4418000   
2024-02-29 20:4517.3818000   
2024-02-29 20:3017.2618000   
2024-02-29 20:1517.1318000   
2024-02-29 20:0017.0218000   
2024-02-29 19:4516.9118000   
2024-02-29 19:3016.7618000   
2024-02-29 19:1516.6418000   
2024-02-29 19:0016.5218000   
2024-02-29 18:4516.4318000   
2024-02-29 18:3016.3518000   
2024-02-29 18:1516.2618000   
2024-02-29 18:0016.2218000   
2024-02-29 17:4516.1818000   
2024-02-29 17:3016.1718000   
2024-02-29 17:1516.1518000   
2024-02-29 17:0016.1718000   
2024-02-29 16:4516.1818000   
2024-02-29 16:3016.1918000   
2024-02-29 16:1516.2218000   
2024-02-29 16:0016.2618000   
2024-02-29 15:4516.3118000   
2024-02-29 15:3016.3518000   
2024-02-29 15:1516.4118000   
2024-02-29 15:0016.4718000   
2024-02-29 14:4516.5518000   
2024-02-29 14:3016.6318000   
2024-02-29 14:1516.7018000   
2024-02-29 14:0016.7918000   
2024-02-29 13:4516.8918000   
2024-02-29 13:3016.9818000   
2024-02-29 13:1517.1118000   
2024-02-29 13:0017.2118000   
2024-02-29 12:4517.3218000   
2024-02-29 12:3017.4418000   
2024-02-29 12:1517.5818000   
2024-02-29 12:0017.6718000   
2024-02-29 11:4517.8018000   
2024-02-29 11:3017.9118000   
2024-02-29 11:1518.0318804   
2024-02-29 11:0018.1421754   
2024-02-29 10:4518.2422952   
2024-02-29 10:3018.3523771   
2024-02-29 10:1518.4524142   
2024-02-29 10:0018.5424485   
2024-02-29 09:4518.6224800   
2024-02-29 09:3018.6825036   
2024-02-29 09:1518.7425273   
2024-02-29 09:0018.7925470   
2024-02-29 08:4518.8125548   
2024-02-29 08:3018.8025509   
2024-02-29 08:1518.7325233   
2024-02-29 08:0018.6324839   
2024-02-29 07:4518.4624179   
2024-02-29 07:3018.2823283   
2024-02-29 07:1518.0820145   
2024-02-29 07:0017.8318000   
2024-02-29 06:4517.5818000   
2024-02-29 06:3017.2818000   
2024-02-29 06:1516.9818000   
2024-02-29 06:0016.6518000   
2024-02-29 05:4516.3018000   
2024-02-29 05:3016.0018000   
2024-02-29 05:1515.7318000   
2024-02-29 05:0015.4718000   
2024-02-29 04:4515.2318000   
2024-02-29 04:3015.0118000   
2024-02-29 04:1514.8318000   
2024-02-29 04:0014.6718000   
2024-02-29 03:4514.5418000   
2024-02-29 03:3014.4118000   
2024-02-29 03:1514.3118000   
2024-02-29 03:0014.2318000   
2024-02-29 02:4514.1918000   
2024-02-29 02:3014.1618000   
2024-02-29 02:1514.1618000   
2024-02-29 02:0014.1618000   
2024-02-29 01:4514.1918000   
2024-02-29 01:3014.2318000   
2024-02-29 01:1514.2918000   
2024-02-29 01:0014.3618000   
2024-02-29 00:4514.4418000   
2024-02-29 00:3014.5318000   
2024-02-29 00:1514.6318000   
2024-02-29 00:0014.7118000   
2024-02-28 23:4514.8218000   
2024-02-28 23:3014.9418000   
2024-02-28 23:1515.0718000   
2024-02-28 23:0015.1918000   
2024-02-28 22:4515.2918000   
2024-02-28 22:3015.4218000   
2024-02-28 22:1515.5218000   
2024-02-28 22:0015.6518000   
2024-02-28 21:4515.7718000   
2024-02-28 21:3015.8818000   
2024-02-28 21:1515.9618000   
2024-02-28 21:0016.0118000   
2024-02-28 20:4516.0218000   
2024-02-28 20:3015.9918000   
2024-02-28 20:1515.9318000   
2024-02-28 20:0015.8418000   
2024-02-28 19:4515.6818000   
2024-02-28 19:3015.5018000   
2024-02-28 19:1515.2718000   
2024-02-28 19:0014.9818000   
2024-02-28 18:4514.7118000   
2024-02-28 18:3014.3418000   
2024-02-28 18:1514.0018000   
2024-02-28 18:0013.6518000   
2024-02-28 17:4513.2718000   
2024-02-28 17:3012.9318000   
2024-02-28 17:1512.5918000   
2024-02-28 17:0012.3018000   
2024-02-28 16:4512.0118000   
2024-02-28 16:3011.7618000   
2024-02-28 16:1511.5418000   
2024-02-28 16:0011.3018000   
2024-02-28 15:4511.1518000   
2024-02-28 15:3011.0518000   
2024-02-28 15:1511.0118000   
2024-02-28 15:0011.0218000   
2024-02-28 14:4511.0818000   
2024-02-28 14:3011.1818000   
2024-02-28 14:1511.3018000   
2024-02-28 14:0011.4418000   
2024-02-28 13:4511.6218000   
2024-02-28 13:3011.8118000   
2024-02-28 13:1512.0318000   
2024-02-28 13:0012.2518000   
2024-02-28 12:4512.5018000   
2024-02-28 12:3012.7718000   
2024-02-28 12:1513.0318000   
2024-02-28 12:0013.3218000   
2024-02-28 11:4513.6018000   
2024-02-28 11:3013.8918000   
2024-02-28 11:1514.1818000   
2024-02-28 11:0014.4718000   
2024-02-28 10:4514.7418000   
2024-02-28 10:3015.0118000   
2024-02-28 10:1515.2618000   
2024-02-28 10:0015.5318000   
2024-02-28 09:4515.8018000   
2024-02-28 09:3016.0418000   
2024-02-28 09:1516.2718000   
2024-02-28 09:0016.4918000   
2024-02-28 08:4516.6718000   
2024-02-28 08:3016.8218000   
2024-02-28 08:1516.9318000   
2024-02-28 08:0016.9818000   
2024-02-28 07:4516.9718000   
2024-02-28 07:3016.9218000   
2024-02-28 07:1516.7818000   
2024-02-28 07:0016.5718000   
2024-02-28 06:4516.2718000   
2024-02-28 06:3015.9618000   
2024-02-28 06:1515.6418000   
2024-02-28 06:0015.2718000   
2024-02-28 05:4514.8418000   
2024-02-28 05:3014.4118000   
2024-02-28 05:1514.0018000   
2024-02-28 05:0013.5218000   
2024-02-28 04:4513.0818000   
2024-02-28 04:3012.6318000   
2024-02-28 04:1512.2018000   
2024-02-28 04:0011.7718000   
2024-02-28 03:4511.3518000   
2024-02-28 03:3010.9518000   
2024-02-28 03:1510.6018000   
2024-02-28 03:0010.3618000   
2024-02-28 02:4510.2018000   
2024-02-28 02:3010.1518000   
2024-02-28 02:1510.1718000   
2024-02-28 02:0010.2318000   
2024-02-28 01:4510.3218000   
2024-02-28 01:3010.4518000   
2024-02-28 01:1510.6018000   
2024-02-28 01:0010.7518000   
2024-02-28 00:4510.9218000   
2024-02-28 00:3011.1318000   
2024-02-28 00:1511.3418000   
2024-02-28 00:0011.5718000   
2024-02-27 23:4511.8218000   
2024-02-27 23:3012.0718000   
2024-02-27 23:1512.3118000   
2024-02-27 23:0012.5618000   
2024-02-27 22:4512.8018000   
2024-02-27 22:3013.0518000   
2024-02-27 22:1513.2718000   
2024-02-27 22:0013.4818000   
2024-02-27 21:4513.7018000   
2024-02-27 21:3013.9118000   
2024-02-27 21:1514.1018000   
2024-02-27 21:0014.2918000   
2024-02-27 20:4514.4718000   
2024-02-27 20:3014.6118000   
2024-02-27 20:1514.7418000   
2024-02-27 20:0014.8218000   
2024-02-27 19:4514.8518000   
2024-02-27 19:3014.8618000   
2024-02-27 19:1514.7918000   
2024-02-27 19:0014.6818000   
2024-02-27 18:4514.5418000   
2024-02-27 18:3014.3518000   
2024-02-27 18:1514.1018000   
2024-02-27 18:0013.8018000   
2024-02-27 17:4513.4818000   
2024-02-27 17:3013.1718000   
2024-02-27 17:1512.8518000   
2024-02-27 17:0012.5218000   
2024-02-27 16:4512.1718000   
2024-02-27 16:3011.8618000   
2024-02-27 16:1511.5818000   
2024-02-27 16:0011.3418000   
2024-02-27 15:4511.1418000   
2024-02-27 15:3010.9818000   
2024-02-27 15:1510.8618000   
2024-02-27 15:0010.8118000   
2024-02-27 14:4510.8218000   
2024-02-27 14:3010.8718000   
2024-02-27 14:1510.9518000   
2024-02-27 14:0011.0918000   
2024-02-27 13:4511.2318000   
2024-02-27 13:3011.3918000   
2024-02-27 13:1511.5918000   
2024-02-27 13:0011.8018000   
2024-02-27 12:4512.0418000   
2024-02-27 12:3012.2918000   
2024-02-27 12:1512.5518000   
2024-02-27 12:0012.8218000   
2024-02-27 11:4513.1018000   
2024-02-27 11:3013.3718000   
2024-02-27 11:1513.6518000   
2024-02-27 11:0013.9218000   
2024-02-27 10:4514.1918000   
2024-02-27 10:3014.4618000   
2024-02-27 10:1514.7218000   
2024-02-27 10:0014.9718000   
2024-02-27 09:4515.2118000   
2024-02-27 09:3015.4418000   
2024-02-27 09:1515.6518000   
2024-02-27 09:0015.8718000   
2024-02-27 08:4516.0918000   
2024-02-27 08:3016.2718000   
2024-02-27 08:1516.4318000   
2024-02-27 08:0016.5518000   
2024-02-27 07:4516.6118000   
2024-02-27 07:3016.6318000   
2024-02-27 07:1516.5818000   
2024-02-27 07:0016.4718000   
2024-02-27 06:4516.3118000   
2024-02-27 06:3016.0818000   
2024-02-27 06:1515.8018000   
2024-02-27 06:0015.4718000   
2024-02-27 05:4515.1218000   
2024-02-27 05:3014.7418000   
2024-02-27 05:1514.3018000   
2024-02-27 05:0013.8418000   
2024-02-27 04:4513.3918000   
2024-02-27 04:3012.9518000   
2024-02-27 04:1512.4918000   
2024-02-27 04:0012.0618000   
2024-02-27 03:4511.7318000   
2024-02-27 03:3011.4718000   
2024-02-27 03:1511.2618000   
2024-02-27 03:0011.1518000   
2024-02-27 02:4511.0818000   
2024-02-27 02:3011.0918000   
2024-02-27 02:1511.1218000   
2024-02-27 02:0011.1918000   
2024-02-27 01:4511.2818000   
2024-02-27 01:3011.3918000   
2024-02-27 01:1511.5218000   
2024-02-27 01:0011.6418000   
2024-02-27 00:4511.7818000   
2024-02-27 00:3011.9518000   
2024-02-27 00:1512.1218000   
2024-02-27 00:0012.3118000   
2024-02-26 23:4512.4918000   
2024-02-26 23:3012.7218000   
2024-02-26 23:1512.9218000   
2024-02-26 23:0013.1618000   
2024-02-26 22:4513.3918000   
2024-02-26 22:3013.6118000   
2024-02-26 22:1513.8618000   
2024-02-26 22:0014.1018000   
2024-02-26 21:4514.3418000   
2024-02-26 21:3014.5518000   
2024-02-26 21:1514.7618000   
2024-02-26 21:0014.9718000   
2024-02-26 20:4515.1918000   
2024-02-26 20:3015.4018000   
2024-02-26 20:1515.5818000   
2024-02-26 20:0015.7618000   
2024-02-26 19:4515.9318000   
2024-02-26 19:3016.0118000   
2024-02-26 19:1516.0418000   
2024-02-26 19:0016.0318000   
2024-02-26 18:4515.9718000   
2024-02-26 18:3015.8918000   
2024-02-26 18:1515.7418000   
2024-02-26 18:0015.5518000   
2024-02-26 17:4515.3018000   
2024-02-26 17:3015.0318000   
2024-02-26 17:1514.7618000   
2024-02-26 17:0014.5118000   
2024-02-26 16:4514.2318000   
2024-02-26 16:3013.9518000   
2024-02-26 16:1513.7218000   
2024-02-26 16:0013.5018000   
2024-02-26 15:4513.3118000   
2024-02-26 15:3013.1418000   
2024-02-26 15:1513.0318000   
2024-02-26 15:0012.9318000   
2024-02-26 14:4512.8618000   
2024-02-26 14:3012.8418000   
2024-02-26 14:1512.8618000   
2024-02-26 14:0012.9218000   
2024-02-26 13:4513.0118000   
2024-02-26 13:3013.1418000   
2024-02-26 13:1513.2918000   
2024-02-26 13:0013.4418000   
2024-02-26 12:4513.6318000   
2024-02-26 12:3013.8118000   
2024-02-26 12:1514.0018000   
2024-02-26 12:0014.2318000   
2024-02-26 11:4514.4418000   
2024-02-26 11:3014.6518000   
2024-02-26 11:1514.8718000   
2024-02-26 11:0015.1018000   
2024-02-26 10:4515.3218000   
2024-02-26 10:3015.5218000   
2024-02-26 10:1515.7418000   
2024-02-26 10:0015.9518000   
2024-02-26 09:4516.1618000   
2024-02-26 09:3016.3418000   
2024-02-26 09:1516.5318000   
2024-02-26 09:0016.7118000   
2024-02-26 08:4516.8918000   
2024-02-26 08:3017.0718000   
2024-02-26 08:1517.2318000   
2024-02-26 08:0017.3718000   
2024-02-26 07:4517.4418000   
2024-02-26 07:3017.4718000   
2024-02-26 07:1517.5018000   
2024-02-26 07:0017.4018000   
2024-02-26 06:4517.2918000   
2024-02-26 06:3017.1318000   
2024-02-26 06:1516.9118000   
2024-02-26 06:0016.6818000   
2024-02-26 05:4516.3218000   
2024-02-26 05:3015.9518000   
2024-02-26 05:1515.6218000   
2024-02-26 05:0015.1618000   
2024-02-26 04:4514.7018000   
2024-02-26 04:3014.2018000   
2024-02-26 04:1513.7218000   
2024-02-26 04:0013.2518000   
2024-02-26 03:4512.8018000   
2024-02-26 03:3012.4018000   
2024-02-26 03:1512.0918000   
2024-02-26 03:0011.8218000   
2024-02-26 02:4511.6318000   
2024-02-26 02:3011.4818000   
2024-02-26 02:1511.3818000   
2024-02-26 02:0011.3518000   
2024-02-26 01:4511.3518000   
2024-02-26 01:3011.3818000   
2024-02-26 01:1511.4118000   
2024-02-26 01:0011.4718000   
2024-02-26 00:4511.5318000   
2024-02-26 00:3011.6218000   
2024-02-26 00:1511.7418000   
2024-02-26 00:0011.8618000   
2024-02-25 23:4512.0018000   
2024-02-25 23:3012.1818000   
2024-02-25 23:1512.3618000   
2024-02-25 23:0012.5618000   
2024-02-25 22:4512.7818000   
2024-02-25 22:3013.0118000   
2024-02-25 22:1513.2418000   
2024-02-25 22:0013.4718000   
2024-02-25 21:4513.7318000   
2024-02-25 21:3013.9918000   
2024-02-25 21:1514.2418000   
2024-02-25 21:0014.5018000   
2024-02-25 20:4514.7418000   
2024-02-25 20:3014.9818000   
2024-02-25 20:1515.2418000   
2024-02-25 20:0015.4918000   
2024-02-25 19:4515.7218000   
2024-02-25 19:3015.9518000   
2024-02-25 19:1516.1618000   
2024-02-25 19:0016.3218000   
2024-02-25 18:4516.4918000   
2024-02-25 18:3016.5418000   
2024-02-25 18:1516.5718000   
2024-02-25 18:0016.5318000   
2024-02-25 17:4516.4718000   
2024-02-25 17:3016.2618000   
2024-02-25 17:1516.0518000   
2024-02-25 17:0015.7418000   
2024-02-25 16:4515.4218000   
2024-02-25 16:3015.0818000   
2024-02-25 16:1514.7818000   
2024-02-25 16:0014.3118000   
2024-02-25 15:4513.9018000   
2024-02-25 15:3013.5318000   
2024-02-25 15:1513.2218000   
2024-02-25 15:0012.9018000   
2024-02-25 14:4512.5818000   
2024-02-25 14:3012.2718000   
2024-02-25 14:1511.8918000   
2024-02-25 14:0011.5618000   
2024-02-25 13:4511.2218000   
2024-02-25 13:3010.9318000   
2024-02-25 13:1510.8118000   
2024-02-25 13:0010.8318000   
2024-02-25 12:4510.9718000   
2024-02-25 12:3011.1618000   
2024-02-25 12:1511.3718000   
2024-02-25 12:0011.6018000   
2024-02-25 11:4511.8718000   
2024-02-25 11:3012.1618000   
2024-02-25 11:1512.4618000   
2024-02-25 11:0012.7618000   
2024-02-25 10:4513.0618000   
2024-02-25 10:3013.3718000   
2024-02-25 10:1513.6718000   
2024-02-25 10:0013.9918000   
2024-02-25 09:4514.2918000   
2024-02-25 09:3014.5718000   
2024-02-25 09:1514.8518000   
2024-02-25 09:0015.1218000   
2024-02-25 08:4515.3818000   
2024-02-25 08:3015.6318000   
2024-02-25 08:1515.8918000   
2024-02-25 08:0016.1418000   
2024-02-25 07:4516.3918000   
2024-02-25 07:3016.5818000   
2024-02-25 07:1516.7318000   
2024-02-25 07:0016.8018000   
2024-02-25 06:4516.8018000   
2024-02-25 06:3016.7318000   
2024-02-25 06:1516.5618000   
2024-02-25 06:0016.3318000   
2024-02-25 05:4516.0518000   
2024-02-25 05:3015.7118000   
2024-02-25 05:1515.3518000   
2024-02-25 05:0014.9118000   
2024-02-25 04:4514.4318000   
2024-02-25 04:3013.9218000   
2024-02-25 04:1513.3518000   
2024-02-25 04:0012.7318000   
2024-02-25 03:4512.0718000   
2024-02-25 03:3011.3518000   
2024-02-25 03:1510.6518000   
2024-02-25 03:0010.0018000   
2024-02-25 02:459.4118000   
2024-02-25 02:308.8318000   
2024-02-25 02:158.2918000   
2024-02-25 02:007.8018000   
2024-02-25 01:457.4818000   
2024-02-25 01:307.3718000   
2024-02-25 01:157.3818000   
2024-02-25 01:007.4518000   
2024-02-25 00:457.5518000   
2024-02-25 00:307.6818000   
2024-02-25 00:157.8318000   
2024-02-25 00:008.0018000   
2024-02-24 23:458.1918000   
2024-02-24 23:308.4018000   
2024-02-24 23:158.6418000   
2024-02-24 23:008.8918000   
2024-02-24 22:459.1518000   
2024-02-24 22:309.4418000   
2024-02-24 22:159.7618000   
2024-02-24 22:0010.0918000   
2024-02-24 21:4510.4318000   
2024-02-24 21:3010.7818000   
2024-02-24 21:1511.1518000   
2024-02-24 21:0011.5018000   
2024-02-24 20:4511.8518000   
2024-02-24 20:3012.2018000   
2024-02-24 20:1512.5418000   
2024-02-24 20:0012.8718000   
2024-02-24 19:4513.1918000   
2024-02-24 19:3013.5018000   
2024-02-24 19:1513.8018000   
2024-02-24 19:0014.1118000   
2024-02-24 18:4514.3918000   
2024-02-24 18:3014.6318000   
2024-02-24 18:1514.8618000   
2024-02-24 18:0015.0218000   
2024-02-24 17:4515.1518000   
2024-02-24 17:3015.2018000   
2024-02-24 17:1515.1518000   
2024-02-24 17:0015.0718000   
2024-02-24 16:4514.9018000   
2024-02-24 16:3014.7118000   
2024-02-24 16:1514.4518000   
2024-02-24 16:0014.1718000   
2024-02-24 15:4513.9018000   
2024-02-24 15:3013.6318000   
2024-02-24 15:1513.3618000   
2024-02-24 15:0013.0618000   
2024-02-24 14:4512.8418000   
2024-02-24 14:3012.5718000   
2024-02-24 14:1512.2918000   
2024-02-24 14:0011.9818000   
2024-02-24 13:4511.6318000   
2024-02-24 13:3011.3018000   
2024-02-24 13:1510.9418000   
2024-02-24 13:0010.6718000   
2024-02-24 12:4510.5918000   
2024-02-24 12:3010.6418000   
2024-02-24 12:1510.7918000   
2024-02-24 12:0010.9918000   
2024-02-24 11:4511.2318000   
2024-02-24 11:3011.5018000   
2024-02-24 11:1511.7818000   
2024-02-24 11:0012.0818000   
2024-02-24 10:4512.3918000   
2024-02-24 10:3012.7018000   
2024-02-24 10:1513.0118000   
2024-02-24 10:0013.3318000   
2024-02-24 09:4513.6418000   
2024-02-24 09:3013.9418000   
2024-02-24 09:1514.2318000   
2024-02-24 09:0014.5218000   
2024-02-24 08:4514.7918000   
2024-02-24 08:3015.0718000   
2024-02-24 08:1515.3418000   
2024-02-24 08:0015.5918000   
2024-02-24 07:4515.8518000   
2024-02-24 07:3016.0918000   
2024-02-24 07:1516.3118000   
2024-02-24 07:0016.4818000   
2024-02-24 06:4516.5718000   
2024-02-24 06:3016.6218000   
2024-02-24 06:1516.5918000   
2024-02-24 06:0016.4918000   
2024-02-24 05:4516.3418000   
2024-02-24 05:3016.0918000   
2024-02-24 05:1515.8318000   
2024-02-24 05:0015.4918000   
2024-02-24 04:4515.1018000   
2024-02-24 04:3014.6818000   
2024-02-24 04:1514.1918000   
2024-02-24 04:0013.6618000   
2024-02-24 03:4513.0718000   
2024-02-24 03:3012.4218000   
2024-02-24 03:1511.7118000   
2024-02-24 03:0010.9718000   
2024-02-24 02:4510.2618000   
2024-02-24 02:309.5818000   
2024-02-24 02:158.9718000   
2024-02-24 02:008.4118000   
2024-02-24 01:457.9118000   
2024-02-24 01:307.5118000   
2024-02-24 01:157.3118000   
2024-02-24 01:007.2718000   
2024-02-24 00:457.3118000   
2024-02-24 00:307.3818000   
2024-02-24 00:157.4718000   
2024-02-24 00:007.5918000   
2024-02-23 23:457.7418000   
2024-02-23 23:307.8918000   
2024-02-23 23:158.0518000   
2024-02-23 23:008.2418000   
2024-02-23 22:458.4518000   
2024-02-23 22:308.6718000   
2024-02-23 22:158.9218000   
2024-02-23 22:009.1818000   
2024-02-23 21:459.4618000   
2024-02-23 21:309.7618000   
2024-02-23 21:1510.0818000   
2024-02-23 21:0010.4218000   
2024-02-23 20:4510.7618000   
2024-02-23 20:3011.1218000   
2024-02-23 20:1511.4718000   
2024-02-23 20:0011.8218000   
2024-02-23 19:4512.1618000   
2024-02-23 19:3012.4918000   
2024-02-23 19:1512.8118000   
2024-02-23 19:0013.1318000   
2024-02-23 18:4513.4518000   
2024-02-23 18:3013.7418000   
2024-02-23 18:1514.0218000   
2024-02-23 18:0014.2918000   
2024-02-23 17:4514.5118000   
2024-02-23 17:3014.7018000   
2024-02-23 17:1514.8518000   
2024-02-23 17:0014.9318000   
2024-02-23 16:4514.9518000   
2024-02-23 16:3014.9018000   
2024-02-23 16:1514.8218000   
2024-02-23 16:0014.6818000